ZHONGXING-4A

Last updated on Thu Nov 06 2025 00:02:51 GMT+0000 (Coordinated Universal Time)

1 60606U 24151A 25309.05844139 -.00000352 00000+0 00000+0 0 9993 2 60606 1.8972 273.3289 0000874 342.5262 287.9860 1.00272292 4508
UTC large
Height (km)
Speed (km/s)
/
Latitude / Longitude
Inclination (degrees)
Orbital Period (minutes)
Azimuth
Elevation
Range (km)
Doppler Factor

Next 0 passes for location: London (51.5072 / 0.1276)

Sorry there are no passes over London.